QPF
0.00 0.00 0.00 0.00 0.00 0.00 0.00 0.00 0.00 0.00 0.00 0.00 0.00 0.00 0.00 0.00 0.00 0.00 0.00 0.00 0.00 0.00 0.00 0.00 0.00 0.00 0.00 0.00 0.00 0.00 0.00 0.00 0.00 0.00 0.00 0.00 0.00 0.00 0.00 0.00 0.00 0.00 0.00
0.00 0.00 0.00 0.00 0.00 0.00 0.00 0.00 0.00 0.00 0.00 0.00 0.00 0.00 0.00 0.00 0.00 0.00 0.00 0.00 0.00 0.00 0.00 0.00 0.00 0.00 0.00 0.00 0.00 0.00 0.00 0.00 0.00 0.00 0.00 0.00 0.00 0.00 0.00 0.00 0.00 0.00 0.00
0.00 0.00 0.00 0.00 0.00 0.00 0.00 0.00 0.00 0.00 0.00 0.00 0.00 0.00 0.00 0.00 0.00 0.00 0.00 0.00 0.00 0.00 0.00 0.00 0.00 0.00 0.00 0.00 0.00 0.00 0.00 0.00 0.00 0.00 0.00 0.00 0.00 0.00 0.00 0.00 0.00 0.00 0.00
0.00 0.00 0.00 0.00 0.00 0.00 0.00 0.00 0.00 0.00 0.00 0.00 0.00 0.00 0.00 0.00 0.00 0.00 0.00 0.00 0.00 0.00 0.00 0.00 0.00 0.00 0.00 0.00 0.00 0.00 0.00 0.00 0.00 0.00 0.00 0.00 0.00 0.00 0.00 0.00 0.00 0.00 0.00
0.00 0.00 0.00 0.00 0.00 0.00 0.00 0.00 0.00 0.00 0.00 0.00 0.00 0.00 0.00 0.00 0.00 0.00 0.00 0.00 0.00 0.00 0.00 0.00 0.00 0.00 0.00 0.00 0.00 0.00 0.00 0.00 0.00 0.00 0.00 0.00 0.00 0.00 0.00 0.00 0.00 0.00 0.00
0.00 0.00 0.00 0.00 0.00 0.00 0.00 0.00 0.00 0.00 0.00 0.00 0.00 0.00 0.00 0.00 0.00 0.00 0.00 0.00 0.00 0.00 0.00 0.00 0.00 0.00 0.00 0.00 0.00 0.00 0.00 0.00 0.00 0.00 0.00 0.00 0.00 0.00 0.00 0.00 0.00 0.00 0.00
0.00 0.00 0.00 0.00 0.00 0.00 0.00 0.00 0.00 0.00 0.00 0.00 0.00 0.00 0.00 0.00 0.00 0.00 0.00 0.00 0.00 0.00 0.00 0.00 0.00 0.00 0.00 0.00 0.00 0.00 0.00 0.00 0.00 0.00 0.00 0.00 0.00 0.00 0.00 0.00 0.00 0.00 0.00
0.00 0.00 0.00 0.00 0.00 0.00 0.00 0.00 0.00 0.00 0.00 0.00 0.00 0.00 0.00 0.00 0.00 0.00 0.00 0.00 0.00 0.00 0.00 0.00 0.00 0.00 0.00 0.00 0.00 0.00 0.00 0.00 0.00 0.00 0.00 0.00 0.00 0.00 0.00 0.01 0.01 0.00 0.00
0.00 0.00 0.00 0.00 0.00 0.00 0.00 0.00 0.00 0.00 0.00 0.00 0.00 0.00 0.00 0.00 0.00 0.00 0.00 0.00 0.00 0.00 0.00 0.00 0.00 0.00 0.00 0.00 0.01 0.00 0.00 0.00 0.00 0.00 0.00 0.01 0.01 0.01 0.02 0.01 0.00 0.00 0.00
0.00 0.00 0.00 0.00 0.00 0.00 0.00 0.00 0.00 0.00 0.00 0.00 0.00 0.00 0.00 0.00 0.00 0.00 0.00 0.00 0.00 0.00 0.00 0.00 0.00 0.00 0.00 0.01 0.01 0.01 0.00 0.00 0.00 0.00 0.00 0.00 0.00 0.00 0.01 0.01 0.00 0.00 0.00
0.00 0.00 0.00 0.00 0.00 0.00 0.00 0.00 0.00 0.00 0.00 0.00 0.00 0.00 0.00 0.00 0.00 0.00 0.00 0.00 0.00 0.00 0.00 0.00 0.00 0.00 0.00 0.01 0.01 0.01 0.01 0.01 0.01 0.01 0.00 0.00 0.00 0.00 0.00 0.00 0.00 0.00 0.00
0.00 0.00 0.00 0.00 0.00 0.00 0.00 0.00 0.00 0.00 0.00 0.00 0.00 0.00 0.00 0.00 0.00 0.00 0.00 0.00 0.00 0.00 0.00 0.00 0.00 0.00 0.01 0.01 0.01 0.01 0.02 0.02 0.01 0.00 0.00 0.00 0.00 0.00 0.00 0.00 0.00 0.00 0.00
0.00 0.00 0.00 0.00 0.00 0.00 0.00 0.00 0.00 0.00 0.00 0.00 0.00 0.00 0.00 0.00 0.00 0.00 0.00 0.00 0.00 0.00 0.00 0.00 0.00 0.01 0.00 0.00 0.00 0.01 0.01 0.00 0.00 0.00 0.00 0.00 0.00 0.00 0.00 0.00 0.00 0.00 0.00
0.00 0.00 0.00 0.00 0.00 0.00 0.00 0.00 0.00 0.00 0.00 0.00 0.00 0.00 0.00 0.00 0.00 0.00 0.00 0.00 0.00 0.00 0.00 0.00 0.00 0.00 0.00 0.00 0.00 0.00 0.00 0.00 0.00 0.00 0.00 0.00 0.00 0.00 0.00 0.00 0.00 0.00 0.00
0.00 0.00 0.00 0.00 0.00 0.00 0.00 0.00 0.00 0.00 0.00 0.00 0.00 0.00 0.00 0.00 0.00 0.00 0.00 0.00 0.00 0.00 0.01 0.00 0.00 0.00 0.00 0.00 0.00 0.00 0.00 0.00 0.00 0.00 0.00 0.00 0.00 0.00 0.00 0.00 0.00 0.00 0.00
0.00 0.00 0.00 0.00 0.00 0.00 0.00 0.00 0.00 0.00 0.00 0.00 0.00 0.00 0.00 0.00 0.00 0.00 0.00 0.00 0.00 0.01 0.01 0.01 0.00 0.00 0.00 0.00 0.00 0.00 0.00 0.00 0.00 0.00 0.00 0.00 0.00 0.00 0.00 0.00 0.00 0.00 0.00
0.00 0.00 0.00 0.00 0.00 0.00 0.00 0.00 0.00 0.00 0.00 0.00 0.00 0.00 0.00 0.00 0.00 0.00 0.00 0.00 0.00 0.01 0.00 0.00 0.00 0.00 0.00 0.00 0.00 0.00 0.00 0.00 0.00 0.00 0.00 0.00 0.00 0.00 0.00 0.00 0.00 0.00 0.00
0.00 0.00 0.00 0.00 0.00 0.00 0.00 0.00 0.00 0.00 0.00 0.00 0.00 0.00 0.00 0.00 0.00 0.00 0.00 0.00 0.00 0.00 0.00 0.00 0.00 0.00 0.00 0.00 0.00 0.00 0.00 0.00 0.00 0.00 0.00 0.00 0.00 0.00 0.00 0.00 0.00 0.00 0.00
0.00 0.00 0.00 0.00 0.00 0.00 0.00 0.00 0.00 0.00 0.00 0.00 0.00 0.00 0.00 0.00 0.00 0.00 0.00 0.00 0.00 0.00 0.00 0.00 0.00 0.00 0.00 0.00 0.00 0.00 0.00 0.00 0.00 0.00 0.00 0.00 0.00 0.00 0.00 0.00 0.00 0.00 0.00
0.00 0.00 0.00 0.00 0.00 0.00 0.00 0.00 0.00 0.00 0.00 0.00 0.00 0.00 0.00 0.00 0.00 0.00 0.00 0.00 0.00 0.00 0.00 0.00 0.00 0.00 0.00 0.00 0.00 0.00 0.00 0.00 0.00 0.00 0.00 0.00 0.00 0.00 0.00 0.00 0.00 0.00 0.00
0.00 0.00 0.00 0.00 0.00 0.00 0.00 0.00 0.00 0.00 0.00 0.00 0.00 0.00 0.00 0.00 0.00 0.00 0.00 0.00 0.00 0.00 0.00 0.00 0.00 0.00 0.00 0.00 0.00 0.00 0.00 0.00 0.00 0.00 0.00 0.00 0.00 0.00 0.00 0.00 0.00 0.00 0.00
0.00 0.00 0.00 0.00 0.00 0.00 0.00 0.00 0.00 0.00 0.00 0.00 0.00 0.00 0.00 0.00 0.00 0.00 0.00 0.00 0.00 0.00 0.00 0.00 0.00 0.00 0.00 0.00 0.00 0.00 0.00 0.00 0.00 0.00 0.00 0.00 0.00 0.00 0.00 0.00 0.00 0.00 0.00
0.00 0.00 0.00 0.00 0.00 0.00 0.00 0.00 0.00 0.00 0.00 0.00 0.00 0.00 0.00 0.00 0.00 0.00 0.00 0.00 0.00 0.00 0.00 0.00 0.00 0.00 0.00 0.00 0.00 0.00 0.00 0.00 0.00 0.00 0.00 0.00 0.00 0.00 0.00 0.00 0.00 0.00 0.00
0.00 0.00 0.00 0.00 0.00 0.00 0.00 0.00 0.00 0.00 0.00 0.00 0.00 0.00 0.00 0.00 0.00 0.00 0.00 0.00 0.00 0.00 0.00 0.00 0.00 0.00 0.00 0.00 0.00 0.00 0.00 0.00 0.00 0.00 0.00 0.00 0.00 0.00 0.00 0.00 0.00 0.00 0.00
0.00 0.00 0.00 0.00 0.00 0.00 0.00 0.00 0.00 0.00 0.00 0.00 0.00 0.00 0.00 0.00 0.00 0.00 0.00 0.00 0.00 0.00 0.00 0.00 0.00 0.00 0.00 0.00 0.00 0.00 0.00 0.00 0.00 0.00 0.00 0.00 0.00 0.00 0.00 0.00 0.00 0.00 0.00
0.00 0.00 0.00 0.00 0.00 0.00 0.00 0.00 0.00 0.00 0.00 0.00 0.00 0.00 0.00 0.00 0.00 0.00 0.00 0.00 0.00 0.00 0.00 0.00 0.00 0.00 0.00 0.00 0.00 0.00 0.00 0.00 0.00 0.00 0.00 0.00 0.00 0.00 0.00 0.00 0.00 0.00 0.00
MSLP
1019.27 1019.41 1019.63 1019.79 1019.84 1019.90 1019.98 1020.09 1020.16 1020.16 1020.12 1020.11 1020.06 1019.95 1019.80 1019.60 1019.42 1019.27 1019.11 1018.87 1018.68 1018.41 1018.15 1017.93 1017.61 1017.32 1017.13 1016.91 1016.76 1016.69 1016.65 1016.51 1015.72 1014.84 1014.81 1014.54 1014.25 1013.93 1013.58 1013.34 1013.21 1013.23 1013.26
1019.39 1019.55 1019.76 1019.85 1019.88 1019.95 1020.06 1020.16 1020.21 1020.25 1020.15 1020.11 1020.00 1019.88 1019.75 1019.59 1019.44 1019.31 1019.13 1018.87 1018.62 1018.38 1018.00 1017.73 1017.44 1016.99 1016.81 1016.62 1016.48 1016.37 1016.08 1015.82 1015.54 1014.45 1014.48 1014.26 1013.99 1013.55 1013.14 1012.87 1012.68 1012.37 1012.29
1019.11 1019.31 1019.51 1019.65 1019.80 1019.94 1020.04 1020.14 1020.22 1020.28 1020.25 1020.12 1020.01 1019.88 1019.71 1019.56 1019.39 1019.22 1019.03 1018.75 1018.54 1018.31 1017.95 1017.59 1017.19 1016.85 1016.63 1016.30 1016.10 1015.98 1015.70 1015.25 1015.03 1014.47 1013.78 1013.73 1013.29 1013.04 1012.65 1012.35 1012.09 1011.86 1011.61
1018.77 1019.00 1019.34 1019.51 1019.65 1019.81 1019.94 1020.09 1020.18 1020.22 1020.19 1020.08 1019.94 1019.79 1019.58 1019.33 1019.10 1018.85 1018.68 1018.56 1018.39 1018.09 1017.76 1017.35 1016.89 1016.51 1016.15 1015.82 1015.58 1015.43 1015.09 1014.93 1014.66 1014.26 1013.68 1013.38 1013.11 1012.58 1012.21 1011.93 1011.52 1011.40 1011.21
1019.23 1019.38 1019.56 1019.66 1019.85 1020.02 1020.13 1020.15 1020.14 1020.10 1020.01 1019.88 1019.71 1019.54 1019.30 1019.04 1018.69 1018.41 1018.27 1018.19 1018.07 1017.80 1017.48 1017.05 1016.60 1016.11 1015.67 1015.32 1015.05 1014.87 1014.71 1014.37 1014.04 1013.66 1013.16 1012.78 1012.51 1012.18 1011.83 1011.25 1010.86 1010.68 1010.22
1019.22 1019.37 1019.45 1019.74 1020.05 1020.23 1020.25 1020.18 1020.05 1019.90 1019.78 1019.66 1019.50 1019.34 1019.06 1018.75 1018.32 1018.07 1017.90 1017.75 1017.59 1017.40 1017.09 1016.63 1016.26 1015.81 1015.31 1015.00 1014.78 1014.57 1014.34 1013.96 1013.58 1013.20 1012.72 1012.24 1011.79 1011.51 1011.18 1010.84 1010.47 1010.12 1009.56
1018.93 1019.06 1019.33 1019.68 1020.05 1020.18 1020.11 1020.02 1019.93 1019.75 1019.53 1019.38 1019.18 1019.00 1018.73 1018.35 1017.96 1017.65 1017.43 1017.24 1017.11 1016.85 1016.53 1016.16 1015.74 1015.43 1014.94 1014.50 1014.12 1013.75 1013.49 1013.19 1012.85 1012.48 1011.95 1011.66 1011.06 1010.82 1010.52 1010.11 1009.87 1009.49 1008.79
1019.03 1019.17 1019.34 1019.60 1019.66 1019.68 1019.81 1019.82 1019.67 1019.47 1019.32 1019.14 1018.84 1018.59 1018.35 1017.96 1017.53 1017.17 1016.90 1016.62 1016.38 1016.15 1015.93 1015.57 1014.89 1014.47 1014.22 1013.82 1013.36 1012.93 1012.57 1012.35 1011.72 1011.34 1010.83 1010.20 1009.95 1009.61 1009.52 1008.99 1008.64 1008.34 1008.04
1019.28 1019.30 1019.30 1019.24 1019.40 1019.55 1019.57 1019.43 1019.30 1019.15 1018.93 1018.70 1018.51 1018.18 1017.94 1017.51 1016.98 1016.56 1016.29 1016.02 1015.80 1015.51 1015.19 1014.78 1014.26 1013.59 1013.31 1012.96 1012.49 1012.20 1011.85 1011.21 1010.83 1010.28 1009.78 1009.25 1008.83 1008.55 1008.20 1007.90 1007.51 1007.35 1006.77
1019.06 1019.14 1019.16 1019.22 1019.25 1019.20 1019.15 1019.01 1018.76 1018.70 1018.63 1018.30 1017.98 1017.71 1017.40 1016.87 1016.33 1015.95 1015.68 1015.44 1015.17 1014.89 1014.50 1013.96 1013.61 1013.08 1012.53 1012.12 1011.68 1011.29 1010.72 1010.19 1009.74 1009.03 1008.47 1008.02 1007.73 1007.43 1007.22 1006.90 1006.32 1006.05 1006.18
1018.84 1018.88 1018.88 1018.74 1018.65 1018.65 1018.59 1018.48 1018.46 1018.34 1018.06 1017.82 1017.54 1017.13 1016.73 1016.27 1015.67 1015.33 1015.03 1014.71 1014.50 1014.05 1013.52 1013.05 1012.74 1012.34 1011.79 1011.30 1010.86 1010.41 1009.83 1009.07 1008.42 1008.04 1007.47 1007.00 1006.79 1006.44 1006.07 1005.80 1005.53 1005.42 1005.15
1018.69 1018.62 1018.41 1018.33 1018.31 1018.25 1018.26 1018.01 1017.86 1017.71 1017.57 1017.29 1017.01 1016.63 1016.16 1015.64 1015.17 1014.77 1014.45 1014.09 1013.68 1013.23 1012.71 1012.22 1011.87 1011.45 1010.84 1010.31 1009.79 1009.22 1008.63 1008.09 1007.57 1007.22 1006.75 1006.28 1005.91 1005.47 1005.04 1004.86 1004.58 1004.33 1004.28
1018.49 1018.36 1018.21 1018.01 1017.87 1017.80 1017.83 1017.63 1017.46 1017.26 1017.08 1016.85 1016.66 1016.22 1015.69 1015.13 1014.67 1014.37 1014.00 1013.66 1013.19 1012.71 1012.15 1011.54 1010.94 1010.46 1009.87 1009.21 1008.77 1008.17 1007.69 1007.45 1007.14 1006.63 1006.01 1005.51 1005.24 1004.76 1004.51 1004.22 1004.02 1003.86 1003.92
1018.28 1018.03 1017.94 1017.89 1017.70 1017.52 1017.33 1017.15 1017.04 1016.75 1016.53 1016.32 1016.01 1015.66 1015.14 1014.75 1014.32 1013.89 1013.48 1013.05 1012.50 1011.90 1011.34 1010.65 1010.00 1009.51 1009.04 1008.41 1007.76 1007.42 1007.17 1006.96 1006.58 1005.96 1005.20 1004.85 1004.53 1004.23 1004.02 1003.79 1003.82 1003.94 1004.05
1018.00 1017.81 1017.63 1017.49 1017.42 1017.22 1016.96 1016.66 1016.39 1015.92 1015.70 1015.39 1015.02 1014.86 1014.50 1014.07 1013.45 1013.17 1012.74 1012.21 1011.67 1011.08 1010.37 1009.67 1009.14 1008.71 1008.15 1007.57 1007.08 1006.86 1006.46 1006.12 1005.78 1005.27 1004.62 1004.25 1003.92 1003.62 1003.35 1003.34 1003.47 1003.72 1003.88
1017.77 1017.68 1017.50 1017.33 1017.15 1016.93 1016.59 1016.08 1015.65 1015.15 1014.71 1014.38 1014.08 1013.86 1013.33 1012.94 1012.51 1012.15 1011.76 1011.37 1010.89 1010.28 1009.55 1009.15 1008.61 1008.26 1007.88 1007.19 1006.86 1006.21 1005.84 1005.40 1005.05 1004.65 1004.00 1003.61 1003.33 1003.05 1002.96 1003.11 1003.28 1003.54 1003.82
1017.52 1017.28 1017.03 1016.90 1016.70 1016.43 1016.08 1015.79 1015.18 1014.14 1013.99 1013.60 1013.28 1012.88 1012.49 1012.11 1011.66 1011.30 1010.95 1010.42 1009.96 1009.45 1009.16 1008.57 1008.16 1007.76 1007.17 1006.70 1006.23 1005.67 1005.11 1004.76 1004.35 1003.91 1003.39 1003.06 1002.80 1002.55 1002.60 1002.81 1003.10 1003.42 1003.77
1016.84 1016.68 1016.50 1016.24 1015.95 1015.67 1015.37 1015.03 1014.72 1014.35 1013.75 1012.81 1012.29 1012.26 1011.82 1011.37 1010.99 1010.59 1010.24 1009.62 1009.08 1008.88 1008.63 1008.07 1007.59 1007.19 1006.64 1006.24 1005.50 1004.99 1004.52 1004.15 1003.77 1003.22 1002.81 1002.59 1002.31 1002.22 1002.47 1002.74 1002.99 1003.32 1003.66
1016.44 1016.10 1015.78 1015.57 1015.30 1015.05 1014.75 1014.39 1014.09 1013.71 1013.22 1012.50 1011.81 1011.31 1011.26 1010.81 1010.34 1009.87 1009.64 1009.31 1008.74 1008.21 1007.74 1007.43 1007.15 1006.70 1006.20 1005.66 1004.73 1004.38 1004.00 1003.59 1003.15 1002.68 1002.37 1002.22 1002.04 1002.11 1002.34 1002.63 1002.95 1003.20 1003.54
1015.90 1015.44 1015.21 1014.99 1014.62 1014.34 1014.09 1013.84 1013.48 1013.06 1012.57 1012.11 1011.62 1011.14 1010.75 1010.35 1009.73 1009.31 1009.01 1008.56 1008.19 1007.71 1007.34 1006.91 1006.48 1006.07 1005.57 1005.05 1004.39 1003.84 1003.44 1003.06 1002.61 1002.30 1002.11 1002.02 1001.96 1002.04 1002.27 1002.59 1002.90 1003.17 1003.45
1015.42 1015.05 1014.81 1014.47 1014.15 1013.82 1013.48 1013.18 1012.82 1012.45 1012.00 1011.54 1011.14 1010.78 1010.27 1009.84 1009.38 1008.91 1008.44 1008.10 1007.66 1007.14 1006.73 1006.36 1005.95 1005.48 1004.94 1004.43 1003.66 1003.38 1002.97 1002.55 1002.23 1001.99 1001.84 1001.86 1001.98 1002.21 1002.38 1002.63 1002.95 1003.28 1003.61
1015.03 1014.76 1014.46 1014.14 1013.76 1013.37 1012.97 1012.60 1012.29 1011.99 1011.61 1011.09 1010.54 1010.12 1009.71 1009.35 1008.86 1008.39 1008.07 1007.59 1007.15 1006.75 1006.27 1005.87 1005.33 1004.78 1004.24 1003.74 1003.23 1002.85 1002.48 1002.10 1001.80 1001.62 1001.60 1001.75 1001.97 1002.22 1002.46 1002.78 1003.12 1003.43 1003.71
1014.71 1014.36 1014.06 1013.72 1013.36 1012.90 1012.56 1012.13 1011.69 1011.27 1010.84 1010.42 1010.05 1009.63 1009.14 1008.69 1008.36 1008.02 1007.56 1007.12 1006.68 1006.18 1005.73 1005.26 1004.69 1004.05 1003.59 1003.14 1002.73 1002.37 1001.95 1001.65 1001.44 1001.38 1001.60 1001.86 1002.10 1002.33 1002.59 1002.90 1003.18 1003.52 1003.84
1014.25 1014.01 1013.66 1013.20 1012.73 1012.26 1011.83 1011.39 1011.02 1010.66 1010.29 1009.97 1009.63 1009.11 1008.66 1008.44 1007.99 1007.55 1007.10 1006.68 1006.18 1005.65 1005.13 1004.58 1004.02 1003.47 1002.95 1002.52 1002.21 1001.86 1001.53 1001.38 1001.34 1001.38 1001.52 1001.92 1002.25 1002.48 1002.77 1003.04 1003.24 1003.51 1003.84
1013.66 1013.42 1013.09 1012.60 1012.12 1011.62 1011.11 1010.73 1010.41 1010.15 1009.94 1009.63 1009.14 1008.83 1008.48 1007.98 1007.47 1007.03 1006.59 1006.15 1005.64 1005.07 1004.45 1003.91 1003.31 1002.76 1002.37 1002.12 1001.87 1001.62 1001.42 1001.31 1001.32 1001.41 1001.66 1001.95 1002.28 1002.58 1002.89 1003.13 1003.39 1003.67 1003.99
1013.24 1012.98 1012.59 1012.07 1011.57 1011.16 1010.80 1010.56 1010.33 1010.02 1009.64 1009.22 1008.99 1008.48 1007.99 1007.46 1006.98 1006.52 1006.09 1005.63 1005.11 1004.55 1004.01 1003.38 1002.80 1002.46 1002.20 1001.92 1001.67 1001.54 1001.47 1001.54 1001.66 1001.73 1001.96 1002.20 1002.55 1002.82 1003.10 1003.36 1003.61 1003.85 1004.06
Thickness
5572 5566 5560 5554 5550 5545 5539 5534 5529 5525 5521 5517 5513 5511 5509 5508 5507 5505 5503 5503 5501 5500 5498 5497 5496 5494 5492 5490 5487 5484 5481 5478 5484 5492 5486 5486 5486 5485 5486 5488 5488 5487 5484
5558 5551 5546 5541 5536 5531 5525 5520 5516 5511 5507 5504 5501 5498 5496 5494 5492 5490 5488 5487 5486 5484 5483 5481 5480 5480 5477 5473 5471 5469 5467 5464 5464 5474 5471 5469 5469 5470 5472 5471 5470 5471 5471
5547 5541 5535 5529 5522 5517 5511 5507 5502 5497 5493 5490 5487 5484 5482 5480 5478 5475 5473 5472 5469 5466 5465 5464 5463 5461 5459 5456 5453 5451 5449 5449 5447 5451 5457 5452 5453 5451 5453 5453 5452 5452 5452
5537 5530 5523 5516 5510 5505 5500 5495 5489 5485 5480 5476 5473 5470 5468 5466 5463 5461 5459 5455 5452 5451 5449 5447 5446 5444 5442 5440 5437 5434 5433 5430 5429 5430 5435 5435 5432 5433 5431 5432 5433 5428 5429
5520 5514 5507 5502 5496 5490 5485 5480 5475 5471 5466 5463 5460 5456 5454 5451 5449 5446 5443 5439 5436 5434 5431 5430 5429 5427 5426 5424 5422 5419 5416 5415 5414 5414 5416 5415 5413 5411 5408 5410 5409 5408 5412
5504 5499 5493 5485 5478 5472 5467 5463 5460 5456 5452 5448 5445 5441 5437 5434 5433 5430 5428 5425 5422 5418 5416 5414 5412 5410 5408 5407 5403 5400 5397 5395 5394 5392 5392 5392 5393 5390 5388 5383 5382 5382 5386
5494 5488 5480 5472 5463 5457 5453 5448 5444 5439 5437 5434 5430 5426 5422 5419 5417 5415 5413 5410 5407 5403 5400 5398 5396 5392 5390 5389 5387 5385 5382 5378 5375 5371 5371 5368 5369 5366 5362 5360 5355 5353 5360
5477 5471 5464 5457 5453 5447 5440 5434 5429 5427 5423 5419 5415 5411 5408 5404 5403 5401 5399 5397 5393 5389 5386 5383 5384 5381 5376 5372 5371 5371 5369 5365 5362 5355 5353 5354 5347 5345 5336 5333 5332 5332 5332
5458 5452 5448 5444 5437 5430 5425 5420 5416 5413 5409 5405 5400 5397 5394 5391 5389 5387 5385 5383 5381 5377 5374 5370 5368 5368 5364 5359 5353 5349 5348 5348 5339 5334 5329 5327 5323 5320 5315 5308 5309 5306 5311
5442 5436 5431 5427 5421 5417 5412 5409 5406 5400 5396 5393 5391 5385 5382 5381 5378 5376 5373 5370 5369 5366 5363 5359 5353 5349 5345 5339 5330 5325 5325 5323 5316 5316 5312 5309 5305 5302 5297 5292 5294 5293 5291
5429 5423 5419 5415 5412 5407 5403 5398 5393 5388 5386 5382 5379 5376 5373 5369 5368 5365 5361 5357 5352 5350 5349 5345 5338 5330 5324 5317 5309 5303 5300 5301 5301 5296 5296 5296 5293 5291 5291 5287 5284 5280 5281
5417 5413 5410 5406 5401 5397 5391 5388 5384 5379 5375 5371 5368 5365 5362 5358 5355 5351 5346 5341 5337 5332 5329 5324 5317 5308 5304 5298 5292 5288 5284 5283 5283 5284 5285 5287 5286 5287 5285 5281 5279 5277 5277
5408 5404 5400 5396 5392 5387 5382 5378 5373 5368 5361 5358 5353 5350 5348 5345 5339 5333 5329 5321 5316 5309 5305 5302 5297 5290 5286 5283 5278 5276 5275 5273 5274 5277 5280 5282 5281 5280 5277 5276 5275 5275 5275
5399 5395 5391 5385 5382 5377 5372 5366 5360 5355 5348 5343 5338 5333 5331 5326 5319 5313 5308 5302 5299 5293 5289 5288 5283 5277 5273 5272 5273 5272 5270 5269 5269 5272 5275 5276 5275 5274 5273 5272 5271 5271 5270
5391 5385 5380 5376 5370 5365 5360 5355 5349 5345 5336 5330 5325 5316 5312 5309 5304 5297 5290 5286 5281 5277 5275 5276 5273 5268 5267 5269 5270 5268 5268 5268 5266 5268 5270 5270 5270 5272 5272 5271 5270 5269 5269
5380 5374 5368 5362 5356 5350 5344 5343 5338 5332 5327 5320 5311 5303 5301 5295 5290 5284 5280 5274 5269 5265 5265 5261 5262 5259 5259 5263 5263 5266 5265 5265 5264 5264 5267 5268 5269 5271 5269 5268 5267 5266 5268
5365 5360 5355 5349 5342 5334 5329 5321 5319 5324 5313 5307 5298 5291 5285 5280 5278 5274 5269 5266 5261 5257 5252 5254 5255 5255 5259 5259 5260 5261 5263 5262 5262 5264 5267 5268 5270 5270 5270 5268 5267 5267 5267
5355 5349 5340 5333 5327 5320 5312 5305 5297 5291 5289 5293 5289 5277 5273 5270 5266 5263 5258 5256 5254 5249 5246 5249 5251 5252 5253 5254 5257 5259 5260 5260 5263 5266 5269 5269 5271 5272 5269 5268 5268 5267 5266
5341 5332 5325 5317 5310 5301 5293 5285 5278 5274 5271 5272 5274 5273 5263 5261 5259 5256 5249 5243 5244 5246 5248 5247 5247 5247 5249 5250 5256 5257 5258 5260 5265 5268 5270 5272 5272 5272 5270 5269 5267 5268 5267
5326 5318 5308 5298 5291 5282 5276 5270 5267 5263 5261 5258 5257 5256 5253 5249 5249 5247 5243 5241 5241 5243 5242 5244 5244 5244 5245 5247 5251 5255 5258 5262 5266 5269 5271 5271 5271 5272 5271 5269 5268 5268 5266
5308 5299 5289 5281 5273 5268 5264 5259 5255 5252 5251 5249 5247 5244 5242 5237 5237 5236 5236 5236 5237 5239 5239 5239 5240 5241 5243 5246 5252 5255 5259 5264 5267 5270 5271 5271 5271 5269 5269 5268 5266 5265 5263
5286 5277 5270 5264 5261 5257 5253 5249 5244 5240 5238 5237 5237 5235 5233 5231 5230 5230 5231 5233 5233 5233 5234 5235 5238 5240 5244 5247 5252 5257 5261 5265 5269 5272 5272 5271 5270 5269 5268 5265 5263 5261 5260
5266 5260 5255 5252 5248 5245 5241 5236 5233 5230 5229 5228 5227 5226 5226 5226 5226 5227 5228 5228 5228 5230 5231 5234 5237 5241 5245 5247 5253 5259 5263 5267 5270 5272 5270 5269 5268 5266 5264 5262 5260 5258 5256
5253 5247 5243 5240 5236 5233 5230 5227 5225 5223 5222 5220 5219 5221 5221 5221 5222 5223 5224 5224 5225 5227 5230 5234 5239 5244 5248 5253 5258 5262 5266 5268 5270 5271 5270 5267 5263 5263 5259 5257 5255 5253 5250
5239 5234 5229 5227 5225 5224 5222 5220 5217 5214 5212 5212 5214 5215 5217 5218 5220 5221 5222 5223 5225 5228 5233 5237 5243 5249 5253 5257 5261 5265 5267 5269 5270 5270 5268 5266 5263 5259 5255 5252 5249 5246 5243
5223 5217 5214 5214 5215 5215 5213 5209 5206 5205 5206 5209 5210 5212 5215 5217 5219 5221 5223 5225 5228 5231 5235 5241 5247 5251 5255 5259 5263 5265 5267 5267 5267 5266 5264 5261 5256 5253 5248 5244 5242 5241 5240